,,,PA_Meas_PMT16A,,PR_Meas_QMR101_102,,RH_Meas_QMH101,,SR_Meas_QMS101,,TA_Meas_QMH101,,GenWind,,GenWind,
date,time,status,PA,status,PR,status,RH,status,SR,status,TA,status,DirAvg,status,SpdAvg,
2009-12-08, 00:00:04,VALID,1004.68,VALID,0,VALID,88.7162,VALID,0,VALID,25.4753,VALID,287,VALID,0.355859,
2009-12-08, 00:01:04,VALID,1004.66,VALID,0,VALID,88.8002,VALID,0,VALID,25.4558,VALID,289,VALID,0.211328,
2009-12-08, 00:02:04,VALID,1004.65,VALID,0,VALID,88.701,VALID,0,VALID,25.4558,VALID,283,VALID,1.16523,
2009-12-08, 00:03:04,VALID,1004.63,VALID,0,VALID,88.5179,VALID,0,VALID,25.4558,VALID,294,VALID,1.10078,
2009-12-08, 00:04:04,VALID,1004.61,VALID,0,VALID,88.4569,VALID,0,VALID,25.4753,VALID,284,VALID,1.19531,
2009-12-08, 00:05:04,VALID,1004.59,VALID,0,VALID,88.3653,VALID,0,VALID,25.4948,VALID,284,VALID,1.17773,
2009-12-08, 00:06:04,VALID,1004.61,VALID,0,VALID,88.3195,VALID,0,VALID,25.4948,VALID,301,VALID,0.887109,
2009-12-08, 00:07:04,VALID,1004.59,VALID,0,VALID,88.3501,VALID,0,VALID,25.4948,VALID,287,VALID,0.361719,
2009-12-08, 00:08:04,VALID,1004.61,VALID,0,VALID,88.2967,VALID,0,VALID,25.4948,VALID,4,VALID,0.39375,
2009-12-08, 00:09:04,VALID,1004.58,VALID,0,VALID,88.3043,VALID,0,VALID,25.4753,VALID,2,VALID,0.294531,
2009-12-08, 00:10:04,VALID,1004.59,VALID,0,VALID,88.3043,VALID,0,VALID,25.4558,VALID,335,VALID,0.491406,
2009-12-08, 00:11:04,VALID,1004.59,VALID,0,VALID,88.2738,VALID,0,VALID,25.4558,VALID,359,VALID,0.355078,
2009-12-08, 00:12:04,VALID,1004.59,VALID,0,VALID,88.1212,VALID,0,VALID,25.4344,VALID,3,VALID,0.457422,
2009-12-08, 00:13:04,VALID,1004.57,VALID,0,VALID,88.0678,VALID,0,VALID,25.4753,VALID,342,VALID,0.490234,
2009-12-08, 00:14:04,VALID,1004.54,VALID,0,VALID,88.022,VALID,0,VALID,25.4558,VALID,356,VALID,0.573828,
2009-12-08, 00:15:04,VALID,1004.55,VALID,0,VALID,88.0678,VALID,0,VALID,25.4558,VALID,352,VALID,0.727344,
2009-12-08, 00:16:04,VALID,1004.52,VALID,0,VALID,88.0525,VALID,0,VALID,25.4558,VALID,337,VALID,0.695703,
2009-12-08, 00:17:04,VALID,1004.52,VALID,0,VALID,88.0983,VALID,0,VALID,25.4558,VALID,358,VALID,0.552344,
2009-12-08, 00:18:04,VALID,1004.48,VALID,0,VALID,88.167,VALID,0,VALID,25.4363,VALID,354,VALID,0.508203,
2009-12-08, 00:19:04,VALID,1004.47,VALID,0,VALID,88.2356,VALID,0,VALID,25.4169,VALID,346,VALID,0.769531,
2009-12-08, 00:20:04,VALID,1004.48,VALID,0,VALID,88.3119,VALID,0,VALID,25.376,VALID,347,VALID,0.383594,
2009-12-08, 00:21:04,VALID,1004.48,VALID,0,VALID,88.4111,VALID,0,VALID,25.3584,VALID,347,VALID,0.259766,
2009-12-08, 00:22:04,VALID,1004.44,VALID,0,VALID,88.5637,VALID,0,VALID,25.339,VALID,356,VALID,0.313281,
2009-12-08, 00:23:04,VALID,1004.44,VALID,0,VALID,88.6247,VALID,0,VALID,25.3195,VALID,353,VALID,0.874219,
2009-12-08, 00:24:04,VALID,1004.4,VALID,0,VALID,88.6781,VALID,0,VALID,25.3,VALID,1,VALID,0.751562,
2009-12-08, 00:25:04,VALID,1004.38,VALID,0,VALID,88.7697,VALID,0,VALID,25.2806,VALID,356,VALID,0.0902344,
2009-12-08, 00:26:04,VALID,1004.36,VALID,0,VALID,88.7391,VALID,0,VALID,25.2397,VALID,356,VALID,0.940234,
2009-12-08, 00:27:04,VALID,1004.34,VALID,0,VALID,88.6628,VALID,0,VALID,25.2611,VALID,329,VALID,0.554688,
2009-12-08, 00:28:04,VALID,1004.36,VALID,0,VALID,88.5789,VALID,0,VALID,25.2806,VALID,359,VALID,0.539063,
2009-12-08, 00:29:04,VALID,1004.34,VALID,0,VALID,88.5789,VALID,0,VALID,25.2806,VALID,340,VALID,0.557813,
2009-12-08, 00:30:04,VALID,1004.36,VALID,0,VALID,88.5789,VALID,0,VALID,25.263,VALID,351,VALID,0.922656,
2009-12-08, 00:31:04,VALID,1004.32,VALID,0,VALID,88.5103,VALID,0,VALID,25.2397,VALID,338,VALID,0.819531,
2009-12-08, 00:32:04,VALID,1004.31,VALID,0,VALID,88.3653,VALID,0,VALID,25.2611,VALID,330,VALID,1.1793,
2009-12-08, 00:33:04,VALID,1004.28,VALID,0,VALID,88.3195,VALID,0,VALID,25.2611,VALID,317,VALID,0.656641,
2009-12-08, 00:34:04,VALID,1004.26,VALID,0,VALID,88.2356,VALID,0,VALID,25.2611,VALID,348,VALID,0.920313,
2009-12-08, 00:35:04,VALID,1004.23,VALID,0,VALID,88.2433,VALID,0,VALID,25.2611,VALID,352,VALID,0.7625,
2009-12-08, 00:36:04,VALID,1004.24,VALID,0,VALID,88.1365,VALID,0,VALID,25.2416,VALID,349,VALID,0.974609,
2009-12-08, 00:37:04,VALID,1004.24,VALID,0,VALID,88.0602,VALID,0,VALID,25.2611,VALID,337,VALID,0.311328,
2009-12-08, 00:38:04,VALID,1004.24,VALID,0,VALID,87.9839,VALID,0,VALID,25.3019,VALID,351,VALID,0.996094,
2009-12-08, 00:39:04,VALID,1004.17,VALID,0,VALID,87.9762,VALID,0,VALID,25.2611,VALID,350,VALID,0.504297,
2009-12-08, 00:40:04,VALID,1004.13,VALID,0,VALID,87.8008,VALID,0,VALID,25.2611,VALID,328,VALID,0.744922,
2009-12-08, 00:41:04,VALID,1004.13,VALID,0,VALID,87.7703,VALID,0,VALID,25.2806,VALID,348,VALID,0.894531,
2009-12-08, 00:42:04,VALID,1004.09,VALID,0,VALID,87.6711,VALID,0,VALID,25.2806,VALID,348,VALID,0.945313,
2009-12-08, 00:43:04,VALID,1004.07,VALID,0,VALID,87.5338,VALID,0,VALID,25.3,VALID,347,VALID,0.687891,
2009-12-08, 00:44:04,VALID,1004.06,VALID,0,VALID,87.4117,VALID,0,VALID,25.3195,VALID,308,VALID,0.379687,
2009-12-08, 00:45:04,VALID,1004.04,VALID,0,VALID,87.4499,VALID,0,VALID,25.3195,VALID,353,VALID,0.621484,
2009-12-08, 00:46:04,VALID,1004.06,VALID,0,VALID,87.4193,VALID,0,VALID,25.3,VALID,325,VALID,0.476563,
2009-12-08, 00:47:04,VALID,1004.04,VALID,0,VALID,87.3888,VALID,0,VALID,25.3214,VALID,8,VALID,0.652344,
2009-12-08, 00:48:04,VALID,1004.02,VALID,0,VALID,87.282,VALID,0,VALID,25.2786,VALID,352,VALID,0.632813,
2009-12-08, 00:49:04,VALID,1004.03,VALID,0,VALID,87.2134,VALID,0,VALID,25.3,VALID,327,VALID,1.0375,
2009-12-08, 00:50:04,VALID,1004.01,VALID,0,VALID,87.1523,VALID,0,VALID,25.3409,VALID,346,VALID,0.716797,
2009-12-08, 00:51:04,VALID,1004,VALID,0,VALID,87.1676,VALID,0,VALID,25.3,VALID,357,VALID,0.464844,
2009-12-08, 00:52:04,VALID,1003.98,VALID,0,VALID,87.1218,VALID,0,VALID,25.3,VALID,359,VALID,0.838281,
2009-12-08, 00:53:04,VALID,1003.97,VALID,0,VALID,86.9692,VALID,0,VALID,25.3,VALID,353,VALID,0.854688,
2009-12-08, 00:54:04,VALID,1003.97,VALID,0,VALID,86.8319,VALID,0,VALID,25.3195,VALID,345,VALID,0.660937,
2009-12-08, 00:55:04,VALID,1003.95,VALID,0,VALID,86.8624,VALID,0,VALID,25.3195,VALID,346,VALID,0.317578,
2009-12-08, 00:56:04,VALID,1003.97,VALID,0,VALID,86.7022,VALID,0,VALID,25.3195,VALID,357,VALID,1.24219,
2009-12-08, 00:57:04,VALID,1003.95,VALID,0,VALID,86.6641,VALID,0,VALID,25.339,VALID,350,VALID,0.771484,
2009-12-08, 00:58:04,VALID,1003.94,VALID,0,VALID,86.6107,VALID,0,VALID,25.339,VALID,7,VALID,0.167578,
2009-12-08, 00:59:04,VALID,1003.92,VALID,0,VALID,86.5573,VALID,0,VALID,25.339,VALID,346,VALID,0.587891,
2009-12-08, 01:00:04,VALID,1003.94,VALID,0,VALID,86.3971,VALID,0,VALID,25.3195,VALID,340,VALID,1.06797,
2009-12-08, 01:01:04,VALID,1003.94,VALID,0,VALID,86.2445,VALID,0.100563,VALID,25.339,VALID,343,VALID,0.9625,
2009-12-08, 01:02:04,VALID,1003.93,VALID,0,VALID,86.2445,VALID,0,VALID,25.3584,VALID,357,VALID,0.500781,
2009-12-08, 01:03:04,VALID,1003.92,VALID,0,VALID,86.2216,VALID,0,VALID,25.339,VALID,358,VALID,0.682813,
2009-12-08, 01:04:04,VALID,1003.92,VALID,0,VALID,86.2826,VALID,0,VALID,25.3195,VALID,358,VALID,0.603125,
2009-12-08, 01:05:04,VALID,1003.93,VALID,0,VALID,86.2369,VALID,0,VALID,25.3195,VALID,343,VALID,0.984766,
2009-12-08, 01:06:04,VALID,1003.89,VALID,0,VALID,86.2369,VALID,0,VALID,25.3,VALID,350,VALID,0.621484,
2009-12-08, 01:07:04,VALID,1003.84,VALID,0,VALID,86.1148,VALID,0,VALID,25.3,VALID,337,VALID,0.791016,
2009-12-08, 01:08:04,VALID,1003.86,VALID,0,VALID,86.1529,VALID,0,VALID,25.2786,VALID,350,VALID,0.648828,
2009-12-08, 01:09:04,VALID,1003.87,VALID,0,VALID,86.2521,VALID,0,VALID,25.2806,VALID,344,VALID,0.810938,
2009-12-08, 01:10:04,VALID,1003.85,VALID,0,VALID,86.0767,VALID,0,VALID,25.2397,VALID,333,VALID,0.592969,
2009-12-08, 01:11:04,VALID,1003.85,VALID,0,VALID,86.1224,VALID,0,VALID,25.2416,VALID,344,VALID,0.860156,
2009-12-08, 01:12:04,VALID,1003.83,VALID,0,VALID,86.1377,VALID,0,VALID,25.2221,VALID,1,VALID,0.694531,
2009-12-08, 01:13:04,VALID,1003.83,VALID,0,VALID,86.1682,VALID,0,VALID,25.2221,VALID,6,VALID,0.345703,
2009-12-08, 01:14:04,VALID,1003.83,VALID,0,VALID,86.069,VALID,0.100563,VALID,25.1832,VALID,350,VALID,0.732422,
2009-12-08, 01:15:04,VALID,1003.83,VALID,0,VALID,85.9851,VALID,0,VALID,25.1618,VALID,346,VALID,0.788281,
2009-12-08, 01:16:04,VALID,1003.82,VALID,0,VALID,85.7868,VALID,0,VALID,25.2027,VALID,347,VALID,1.10312,
2009-12-08, 01:17:04,VALID,1003.78,VALID,0,VALID,85.8096,VALID,0,VALID,25.2007,VALID,356,VALID,0.457422,
2009-12-08, 01:18:04,VALID,1003.8,VALID,0,VALID,85.8936,VALID,0,VALID,25.2027,VALID,337,VALID,0.632422,
2009-12-08, 01:19:04,VALID,1003.77,VALID,0,VALID,85.947,VALID,0,VALID,25.1832,VALID,341,VALID,0.627344,
2009-12-08, 01:20:04,VALID,1003.74,VALID,0,VALID,85.9088,VALID,0,VALID,25.1832,VALID,350,VALID,0.696094,
2009-12-08, 01:21:04,VALID,1003.74,VALID,0,VALID,85.9393,VALID,0,VALID,25.1832,VALID,349,VALID,0.829687,
2009-12-08, 01:22:04,VALID,1003.69,VALID,0,VALID,86.0233,VALID,0,VALID,25.1637,VALID,354,VALID,0.715625,
2009-12-08, 01:23:04,VALID,1003.67,VALID,0,VALID,86.1148,VALID,0,VALID,25.1442,VALID,343,VALID,0.744922,
2009-12-08, 01:24:04,VALID,1003.67,VALID,0,VALID,86.1835,VALID,0,VALID,25.1248,VALID,350,VALID,0.768359,
2009-12-08, 01:25:04,VALID,1003.62,VALID,0,VALID,86.275,VALID,0,VALID,25.1034,VALID,13,VALID,0.862109,
2009-12-08, 01:26:04,VALID,1003.59,VALID,0,VALID,86.3742,VALID,0,VALID,25.1053,VALID,356,VALID,0.549219,
2009-12-08, 01:27:04,VALID,1003.57,VALID,0,VALID,86.481,VALID,0,VALID,25.0644,VALID,338,VALID,0.844141,
2009-12-08, 01:28:04,VALID,1003.55,VALID,0,VALID,86.6183,VALID,0.100563,VALID,25.0644,VALID,356,VALID,0.750391,
2009-12-08, 01:29:04,VALID,1003.54,VALID,0,VALID,86.6488,VALID,0.100563,VALID,25.045,VALID,344,VALID,0.985547,
2009-12-08, 01:30:04,VALID,1003.51,VALID,0,VALID,86.687,VALID,0.100563,VALID,25.045,VALID,349,VALID,1.24883,
2009-12-08, 01:31:04,VALID,1003.47,VALID,0,VALID,86.7785,VALID,0.100563,VALID,25.0255,VALID,356,VALID,0.735547,
2009-12-08, 01:32:04,VALID,1003.45,VALID,0,VALID,86.8548,VALID,0.100563,VALID,25.0255,VALID,3,VALID,0.842188,
2009-12-08, 01:33:04,VALID,1003.43,VALID,0,VALID,86.9082,VALID,0.100563,VALID,25.006,VALID,348,VALID,0.547656,
2009-12-08, 01:34:04,VALID,1003.4,VALID,0,VALID,86.9235,VALID,0.100563,VALID,25.006,VALID,3,VALID,0.99375,
2009-12-08, 01:35:04,VALID,1003.38,VALID,0,VALID,87.0226,VALID,0.100563,VALID,24.9866,VALID,351,VALID,0.997266,
2009-12-08, 01:36:04,VALID,1003.38,VALID,0,VALID,87.1066,VALID,0.100563,VALID,24.9866,VALID,336,VALID,1.35859,
2009-12-08, 01:37:04,VALID,1003.34,VALID,0,VALID,87.1523,VALID,0,VALID,24.9476,VALID,3,VALID,0.551562,
2009-12-08, 01:38:04,VALID,1003.36,VALID,0,VALID,87.221,VALID,0.100563,VALID,24.9282,VALID,336,VALID,0.704687,
2009-12-08, 01:39:04,VALID,1003.32,VALID,0,VALID,87.1752,VALID,0.100563,VALID,24.9282,VALID,351,VALID,1.32617,
2009-12-08, 01:40:04,VALID,1003.32,VALID,0,VALID,87.1981,VALID,0.100563,VALID,24.9476,VALID,358,VALID,0.648828,
2009-12-08, 01:41:04,VALID,1003.32,VALID,0,VALID,87.1981,VALID,0.201126,VALID,24.9282,VALID,350,VALID,0.940234,
2009-12-08, 01:42:04,VALID,1003.32,VALID,0,VALID,87.1676,VALID,0.100563,VALID,24.9282,VALID,348,VALID,1.18516,
2009-12-08, 01:43:04,VALID,1003.3,VALID,0,VALID,87.2057,VALID,0,VALID,24.9282,VALID,302,VALID,0.282813,
2009-12-08, 01:44:04,VALID,1003.26,VALID,0,VALID,87.2591,VALID,0,VALID,24.9087,VALID,2,VALID,0.546875,
2009-12-08, 01:45:04,VALID,1003.28,VALID,0,VALID,87.2973,VALID,0,VALID,24.8911,VALID,347,VALID,0.0222656,
2009-12-08, 01:46:04,VALID,1003.25,VALID,0,VALID,87.3278,VALID,0,VALID,24.8697,VALID,23,VALID,0.635938,
2009-12-08, 01:47:04,VALID,1003.24,VALID,0,VALID,87.4041,VALID,0,VALID,24.8716,VALID,356,VALID,0.864062,
2009-12-08, 01:48:04,VALID,1003.27,VALID,0,VALID,87.4193,VALID,0,VALID,24.8308,VALID,350,VALID,0.600781,
2009-12-08, 01:49:04,VALID,1003.29,VALID,0,VALID,87.4727,VALID,0,VALID,24.8522,VALID,339,VALID,1.0207,
2009-12-08, 01:50:04,VALID,1003.28,VALID,0,VALID,87.5414,VALID,0,VALID,24.8113,VALID,351,VALID,0.405859,
2009-12-08, 01:51:04,VALID,1003.29,VALID,0,VALID,87.6406,VALID,0,VALID,24.7919,VALID,349,VALID,0.442578,
2009-12-08, 01:52:04,VALID,1003.32,VALID,0,VALID,87.6711,VALID,0,VALID,24.7724,VALID,328,VALID,0.738672,
2009-12-08, 01:53:04,VALID,1003.32,VALID,0,VALID,87.7245,VALID,0,VALID,24.7529,VALID,333,VALID,0.557031,
2009-12-08, 01:54:04,VALID,1003.36,VALID,0,VALID,87.7321,VALID,0,VALID,24.7743,VALID,351,VALID,0.822656,
2009-12-08, 01:55:04,VALID,1003.34,VALID,0,VALID,87.7016,VALID,0,VALID,24.7743,VALID,346,VALID,0.789453,
2009-12-08, 01:56:04,VALID,1003.31,VALID,0,VALID,87.694,VALID,0,VALID,24.7335,VALID,357,VALID,0.753125,
2009-12-08, 01:57:04,VALID,1003.36,VALID,0,VALID,87.694,VALID,0,VALID,24.7335,VALID,338,VALID,0.717578,
2009-12-08, 01:58:04,VALID,1003.32,VALID,0,VALID,87.6253,VALID,0,VALID,24.7548,VALID,350,VALID,0.683203,
2009-12-08, 01:59:04,VALID,1003.33,VALID,0,VALID,87.5872,VALID,0,VALID,24.7761,VALID,350,VALID,0.572266,
2009-12-08, 02:00:04,VALID,1003.35,VALID,0,VALID,87.5414,VALID,0,VALID,24.7761,VALID,360,VALID,0.603516,
2009-12-08, 02:01:04,VALID,1003.35,VALID,0,VALID,87.5109,VALID,0,VALID,24.7353,VALID,358,VALID,1.13867,
2009-12-08, 02:02:04,VALID,1003.36,VALID,0,VALID,87.488,VALID,0,VALID,24.7548,VALID,351,VALID,0.477734,
2009-12-08, 02:03:04,VALID,1003.37,VALID,0,VALID,87.4346,VALID,0,VALID,24.7353,VALID,344,VALID,0.897266,
2009-12-08, 02:04:04,VALID,1003.38,VALID,0,VALID,87.4041,VALID,0,VALID,24.7353,VALID,346,VALID,0.641406,
2009-12-08, 02:05:04,VALID,1003.38,VALID,0,VALID,87.4041,VALID,0,VALID,24.7335,VALID,3,VALID,0.580859,
2009-12-08, 02:06:04,VALID,1003.36,VALID,0,VALID,87.4041,VALID,0,VALID,24.7548,VALID,329,VALID,0.559375,
2009-12-08, 02:07:04,VALID,1003.41,VALID,0,VALID,87.4346,VALID,0,VALID,24.7743,VALID,355,VALID,0.316016,
2009-12-08, 02:08:04,VALID,1003.45,VALID,0,VALID,87.4117,VALID,0,VALID,24.7743,VALID,348,VALID,0.236328,
2009-12-08, 02:09:04,VALID,1003.48,VALID,0,VALID,87.427,VALID,0,VALID,24.7529,VALID,341,VALID,0.347656,
2009-12-08, 02:10:04,VALID,1003.53,VALID,0,VALID,87.4499,VALID,0,VALID,24.7937,VALID,1,VALID,0.979297,
2009-12-08, 02:11:04,VALID,1003.52,VALID,0,VALID,87.3278,VALID,0,VALID,24.854,VALID,346,VALID,0.208984,
2009-12-08, 02:12:04,VALID,1003.54,VALID,0,VALID,87.2515,VALID,0,VALID,24.8522,VALID,341,VALID,0.654688,
2009-12-08, 02:13:04,VALID,1003.56,VALID,0,VALID,87.2439,VALID,0,VALID,24.8522,VALID,353,VALID,0.960156,
2009-12-08, 02:14:04,VALID,1003.53,VALID,0,VALID,87.2515,VALID,0,VALID,24.8716,VALID,350,VALID,1.03711,
2009-12-08, 02:15:04,VALID,1003.57,VALID,0,VALID,87.2286,VALID,0,VALID,24.9319,VALID,293,VALID,0.191016,
2009-12-08, 02:16:04,VALID,1003.58,VALID,0,VALID,87.3354,VALID,0,VALID,24.9106,VALID,360,VALID,0.832422,
2009-12-08, 02:17:04,VALID,1003.58,VALID,0,VALID,87.343,VALID,0,VALID,24.9106,VALID,4,VALID,0.0632813,
2009-12-08, 02:18:04,VALID,1003.55,VALID,0,VALID,87.3125,VALID,0,VALID,24.9319,VALID,350,VALID,0.8,
2009-12-08, 02:19:04,VALID,1003.53,VALID,0,VALID,87.2515,VALID,0,VALID,24.9709,VALID,12,VALID,0.523047,
2009-12-08, 02:20:04,VALID,1003.53,VALID,0,VALID,87.2362,VALID,0,VALID,24.9495,VALID,358,VALID,0.626953,
2009-12-08, 02:21:04,VALID,1003.53,VALID,0,VALID,87.1752,VALID,0,VALID,24.969,VALID,347,VALID,0.303906,
2009-12-08, 02:22:04,VALID,1003.54,VALID,0,VALID,87.0455,VALID,0,VALID,25.0098,VALID,331,VALID,0.803906,
2009-12-08, 02:23:04,VALID,1003.52,VALID,0,VALID,86.9006,VALID,0,VALID,25.0293,VALID,13,VALID,0.857031,
2009-12-08, 02:24:04,VALID,1003.54,VALID,0,VALID,86.7404,VALID,0,VALID,25.0255,VALID,357,VALID,1.18789,
2009-12-08, 02:25:04,VALID,1003.5,VALID,0,VALID,86.5344,VALID,0,VALID,25.0663,VALID,330,VALID,1.28359,
2009-12-08, 02:26:04,VALID,1003.5,VALID,0,VALID,86.42,VALID,0,VALID,25.1072,VALID,4,VALID,0.814844,
2009-12-08, 02:27:04,VALID,1003.49,VALID,0,VALID,86.275,VALID,0,VALID,25.1267,VALID,352,VALID,0.790625,
2009-12-08, 02:28:04,VALID,1003.5,VALID,0,VALID,86.0919,VALID,0,VALID,25.1053,VALID,353,VALID,0.769531,
2009-12-08, 02:29:04,VALID,1003.5,VALID,0,VALID,85.9851,VALID,0,VALID,25.1248,VALID,343,VALID,0.925,
2009-12-08, 02:30:04,VALID,1003.5,VALID,0,VALID,85.9546,VALID,0,VALID,25.1053,VALID,325,VALID,0.271094,
2009-12-08, 02:31:04,VALID,1003.48,VALID,0,VALID,86.0309,VALID,0,VALID,25.0663,VALID,360,VALID,0.542188,
2009-12-08, 02:32:04,VALID,1003.49,VALID,0,VALID,85.947,VALID,0,VALID,25.0663,VALID,352,VALID,0.584766,
2009-12-08, 02:33:04,VALID,1003.47,VALID,0,VALID,85.9699,VALID,0,VALID,25.0469,VALID,345,VALID,0.986719,
2009-12-08, 02:34:04,VALID,1003.45,VALID,0,VALID,86.0767,VALID,0,VALID,25.0469,VALID,3,VALID,0.509375,
2009-12-08, 02:35:04,VALID,1003.42,VALID,0,VALID,85.9317,VALID,0,VALID,25.0488,VALID,348,VALID,1.27969,
2009-12-08, 02:36:04,VALID,1003.42,VALID,0,VALID,86.0309,VALID,0,VALID,25.0079,VALID,333,VALID,0.538672,
2009-12-08, 02:37:04,VALID,1003.39,VALID,0,VALID,86.0614,VALID,0,VALID,24.969,VALID,349,VALID,0.970703,
2009-12-08, 02:38:04,VALID,1003.39,VALID,0,VALID,86.069,VALID,0,VALID,24.969,VALID,348,VALID,0.771875,
2009-12-08, 02:39:04,VALID,1003.34,VALID,0,VALID,86.1377,VALID,0,VALID,24.969,VALID,342,VALID,0.984375,
2009-12-08, 02:40:04,VALID,1003.35,VALID,0,VALID,86.2216,VALID,0,VALID,24.9495,VALID,334,VALID,0.658984,
2009-12-08, 02:41:04,VALID,1003.33,VALID,0,VALID,86.2521,VALID,0,VALID,24.93,VALID,334,VALID,0.796094,
2009-12-08, 02:42:04,VALID,1003.32,VALID,0,VALID,86.2674,VALID,0,VALID,24.93,VALID,348,VALID,0.494922,
2009-12-08, 02:43:04,VALID,1003.31,VALID,0,VALID,86.3818,VALID,0,VALID,24.8911,VALID,350,VALID,0.478125,
2009-12-08, 02:44:04,VALID,1003.33,VALID,0,VALID,86.4657,VALID,0,VALID,24.9106,VALID,5,VALID,0.910547,
2009-12-08, 02:45:04,VALID,1003.28,VALID,0,VALID,86.4581,VALID,0,VALID,24.8911,VALID,338,VALID,0.558203,
2009-12-08, 02:46:04,VALID,1003.31,VALID,0,VALID,86.5191,VALID,0,VALID,24.8911,VALID,343,VALID,0.191406,
2009-12-08, 02:47:04,VALID,1003.29,VALID,0,VALID,86.5344,VALID,0,VALID,24.8911,VALID,345,VALID,0.724219,
2009-12-08, 02:48:04,VALID,1003.3,VALID,0,VALID,86.5573,VALID,0,VALID,24.8697,VALID,350,VALID,0.474219,
2009-12-08, 02:49:04,VALID,1003.28,VALID,0,VALID,86.5496,VALID,0,VALID,24.8716,VALID,4,VALID,0.883984,
2009-12-08, 02:50:04,VALID,1003.3,VALID,0,VALID,86.5573,VALID,0,VALID,24.9125,VALID,349,VALID,0.619531,
2009-12-08, 02:51:04,VALID,1003.3,VALID,0,VALID,86.5725,VALID,0,VALID,24.8911,VALID,343,VALID,0.703906,
2009-12-08, 02:52:04,VALID,1003.28,VALID,0,VALID,86.5191,VALID,0,VALID,24.8911,VALID,348,VALID,0.430078,
2009-12-08, 02:53:04,VALID,1003.29,VALID,0,VALID,86.4123,VALID,0,VALID,24.8911,VALID,347,VALID,0.738281,
2009-12-08, 02:54:04,VALID,1003.22,VALID,0,VALID,86.2369,VALID,0,VALID,24.9495,VALID,358,VALID,0.797656,
2009-12-08, 02:55:04,VALID,1003.28,VALID,0,VALID,86.1148,VALID,0,VALID,24.93,VALID,353,VALID,0.849219,
2009-12-08, 02:56:04,VALID,1003.29,VALID,0,VALID,86.008,VALID,0,VALID,24.969,VALID,340,VALID,0.698828,
2009-12-08, 02:57:04,VALID,1003.26,VALID,0,VALID,85.9393,VALID,0,VALID,24.9671,VALID,353,VALID,0.641797,
2009-12-08, 02:58:04,VALID,1003.24,VALID,0,VALID,85.8554,VALID,0,VALID,25.0488,VALID,357,VALID,0.871484,
2009-12-08, 02:59:04,VALID,1003.26,VALID,0,VALID,85.8554,VALID,0,VALID,25.0274,VALID,355,VALID,0.346875,
2009-12-08, 03:00:04,VALID,1003.28,VALID,0,VALID,85.802,VALID,0,VALID,25.0079,VALID,350,VALID,1.02266,
2009-12-08, 03:01:04,VALID,1003.28,VALID,0,VALID,85.7257,VALID,0,VALID,25.0469,VALID,342,VALID,0.480078,
2009-12-08, 03:02:04,VALID,1003.31,VALID,0,VALID,85.7486,VALID,0,VALID,25.0682,VALID,3,VALID,0.982422,
2009-12-08, 03:03:04,VALID,1003.3,VALID,0,VALID,85.6876,VALID,0,VALID,25.0663,VALID,329,VALID,0.933594,
2009-12-08, 03:04:04,VALID,1003.33,VALID,0,VALID,85.5808,VALID,0,VALID,25.1053,VALID,296,VALID,0.434375,
2009-12-08, 03:05:04,VALID,1003.36,VALID,0,VALID,85.5198,VALID,0,VALID,25.1053,VALID,333,VALID,0.396875,
2009-12-08, 03:06:04,VALID,1003.4,VALID,0,VALID,85.4663,VALID,0,VALID,25.1053,VALID,9,VALID,0.305469,
2009-12-08, 03:07:04,VALID,1003.37,VALID,0,VALID,85.4282,VALID,0,VALID,25.1053,VALID,337,VALID,0.561719,
2009-12-08, 03:08:04,VALID,1003.38,VALID,0,VALID,85.4129,VALID,0,VALID,25.1072,VALID,14,VALID,0.468359,
2009-12-08, 03:09:04,VALID,1003.36,VALID,0,VALID,85.4358,VALID,0,VALID,25.0858,VALID,358,VALID,0.761328,
2009-12-08, 03:10:04,VALID,1003.37,VALID,0,VALID,85.2833,VALID,0,VALID,25.0663,VALID,338,VALID,0.91875,
2009-12-08, 03:11:04,VALID,1003.36,VALID,0,VALID,85.2756,VALID,0,VALID,25.0644,VALID,334,VALID,0.351172,
2009-12-08, 03:12:04,VALID,1003.37,VALID,0,VALID,85.207,VALID,0,VALID,25.0663,VALID,1,VALID,0.497656,
2009-12-08, 03:13:04,VALID,1003.39,VALID,0,VALID,85.1993,VALID,0,VALID,25.0663,VALID,359,VALID,0.107422,
2009-12-08, 03:14:04,VALID,1003.44,VALID,0,VALID,85.1917,VALID,0,VALID,25.0469,VALID,359,VALID,0.167187,
2009-12-08, 03:15:04,VALID,1003.44,VALID,0,VALID,85.1459,VALID,0,VALID,25.0469,VALID,355,VALID,0.609766,
2009-12-08, 03:16:04,VALID,1003.47,VALID,0,VALID,85.1765,VALID,0,VALID,25.0274,VALID,351,VALID,0.475,
2009-12-08, 03:17:04,VALID,1003.47,VALID,0,VALID,85.1459,VALID,0,VALID,25.0274,VALID,315,VALID,0,
2009-12-08, 03:18:04,VALID,1003.51,VALID,0,VALID,85.1765,VALID,0,VALID,25.0274,VALID,315,VALID,0,
2009-12-08, 03:19:04,VALID,1003.5,VALID,0,VALID,85.1383,VALID,0,VALID,25.0274,VALID,334,VALID,0.684766,
2009-12-08, 03:20:04,VALID,1003.53,VALID,0,VALID,85.0925,VALID,0,VALID,25.0274,VALID,346,VALID,0.723437,
2009-12-08, 03:21:04,VALID,1003.52,VALID,0,VALID,85.1917,VALID,0,VALID,25.0079,VALID,343,VALID,0.382813,
2009-12-08, 03:22:04,VALID,1003.5,VALID,0,VALID,85.8173,VALID,0,VALID,24.9495,VALID,360,VALID,0,
2009-12-08, 03:23:04,VALID,1003.49,VALID,0,VALID,86.214,VALID,0,VALID,24.8522,VALID,360,VALID,0,
2009-12-08, 03:24:04,VALID,1003.47,VALID,0,VALID,86.5878,VALID,0,VALID,24.7956,VALID,1,VALID,0,
2009-12-08, 03:25:04,VALID,1003.45,VALID,0,VALID,86.8319,VALID,0,VALID,24.6964,VALID,307,VALID,0.387109,
2009-12-08, 03:26:04,VALID,1003.43,VALID,0,VALID,87.0226,VALID,0,VALID,24.6769,VALID,357,VALID,0.368359,
2009-12-08, 03:27:04,VALID,1003.45,VALID,0,VALID,87.0684,VALID,0,VALID,24.638,VALID,357,VALID,0.275781,
2009-12-08, 03:28:04,VALID,1003.43,VALID,0,VALID,87.1218,VALID,0,VALID,24.638,VALID,343,VALID,0.555469,
2009-12-08, 03:29:04,VALID,1003.44,VALID,0,VALID,87.0989,VALID,0,VALID,24.6185,VALID,334,VALID,0.021875,
2009-12-08, 03:30:04,VALID,1003.44,VALID,0,VALID,87.1828,VALID,0,VALID,24.6398,VALID,334,VALID,0,
2009-12-08, 03:31:04,VALID,1003.43,VALID,0,VALID,87.1981,VALID,0,VALID,24.6204,VALID,337,VALID,0.392578,
2009-12-08, 03:32:04,VALID,1003.44,VALID,0,VALID,87.1371,VALID,0,VALID,24.599,VALID,337,VALID,0.284766,
2009-12-08, 03:33:04,VALID,1003.45,VALID,0,VALID,87.0074,VALID,0,VALID,24.6398,VALID,354,VALID,0.423047,
2009-12-08, 03:34:04,VALID,1003.49,VALID,0,VALID,86.9006,VALID,0,VALID,24.638,VALID,356,VALID,0.724609,
2009-12-08, 03:35:04,VALID,1003.47,VALID,0,VALID,86.7404,VALID,0,VALID,24.6574,VALID,344,VALID,0.615234,
2009-12-08, 03:36:04,VALID,1003.44,VALID,0,VALID,86.6717,VALID,0,VALID,24.6769,VALID,341,VALID,0.580859,
2009-12-08, 03:37:04,VALID,1003.42,VALID,0,VALID,86.6107,VALID,0,VALID,24.6769,VALID,354,VALID,0.49375,
2009-12-08, 03:38:04,VALID,1003.41,VALID,0,VALID,86.6107,VALID,0,VALID,24.675,VALID,332,VALID,0.517969,
2009-12-08, 03:39:04,VALID,1003.45,VALID,0,VALID,86.4962,VALID,0,VALID,24.6964,VALID,332,VALID,0.507813,
2009-12-08, 03:40:04,VALID,1003.43,VALID,0,VALID,86.4047,VALID,0,VALID,24.6945,VALID,349,VALID,0.671484,
2009-12-08, 03:41:04,VALID,1003.41,VALID,0,VALID,86.3437,VALID,0,VALID,24.7353,VALID,351,VALID,0.725391,
2009-12-08, 03:42:04,VALID,1003.4,VALID,0,VALID,86.275,VALID,0,VALID,24.7353,VALID,339,VALID,0.732422,
2009-12-08, 03:43:04,VALID,1003.38,VALID,0,VALID,86.1835,VALID,0,VALID,24.7529,VALID,353,VALID,0.513281,
2009-12-08, 03:44:04,VALID,1003.4,VALID,0,VALID,86.1606,VALID,0,VALID,24.7937,VALID,322,VALID,0.672656,